Preview of NWS' New Version of Forecast
This preview is not operational and should not be used for support decisions.

Regional Weather Roundup (RWR)

Issued by National Weather Service (NWS)

                            
000
ASCA42 TJSJ 231910
RWRPR 
PUERTO RICO/U.S. VIRGIN ISLANDS HOURLY WEATHER ROUNDUP
NATIONAL WEATHER SERVICE SAN JUAN PR
300 PM AST SAT MAR 23 2019

PRZ001>002-007>008-010-232000-
PUERTO RICO
  
CITY           SKY/WX    TMP DP  RH WIND       PRES   REMARKS
SAN JUAN LMM   MOSUNNY   84  70  61 NE18      30.04F                  
AGUADILLA      CLOUDY    79  70  73 E13       30.06F                  
CEIBA          SUNNY     86  68  54 E12       30.06F                  
$$

VIZ001>002-232000-
U.S. VIRGIN ISLANDS
  
CITY           SKY/WX    TMP DP  RH WIND       PRES   REMARKS
CHARLOTTE AMA  MOSUNNY   82  70  65 SE14      30.04F                  
CHRISTIANSTED  MOSUNNY   84  68  58 E14       30.05F                  
$$

HOURLY WEATHER ROUNDUP FOR THE NEWS MEDIA
  
CITY           SKY/WX    TMP DP  RH WIND       PRES   REMARKS
ORLANDO        FAIR      78  36  21 VRB3      30.18F                  
NEW YORK       FAIR      49  23  36 NW24G37   29.91S                  
NEWARK         FAIR      49  19  30 NW21G35   29.93R                  
CHICAGO        FAIR      50  26  39 SW8       30.29F                  
HARTFORD       FAIR      43  26  51 W21G33    29.67R                  
BOSTON         PTSUNNY   46  25  43 W25G36    29.65R                  
DALLAS         CLOUDY    68  59  73 S13G25    30.03F                  
PHILADELPHIA   FAIR      50  12  21 W25G36    30.03R                  
LOS ANGELES    PTSUNNY   62  50  64 SW9       30.17S                  
WASHINGTON DC  FAIR      49  19  30 W25G31    30.15F